Location: *
(48.1788°S, 172.6917°W)
Time: 01:19:34
(UTC+00:00)

Daily predictions for brighter satellites

Satellite Brightness Start Highest point End
(mag) Time Altitude Azimuth Time Altitude Azimuth Time Altitude Azimuth
USA 215 3.5 04:10:57 10° E 04:17:21 55° SSE 04:23:46 10° SW
CZ-2C R/B 4.2 04:15:13 10° S 04:19:17 29° WSW 04:23:23 10° WNW
Cosmos 1633 4.2 04:16:29 10° NW 04:19:44 34° WSW 04:23:00 10° S
Lacrosse 5 2.9 04:17:49 10° WSW 04:22:24 31° S 04:26:59 10° ESE
CZ-4B R/B 3.4 04:19:18 10° SSE 04:24:15 89° ENE 04:29:03 10° NNW
ERBS 3.4 04:25:21 10° SW 04:28:03 25° SSE 04:30:43 10° ESE
Cosmos 2360 4.2 04:23:22 10° SSW 04:29:10 77° ESE 04:34:54 10° NNE
Cosmos 1605 Rocket 4.4 04:23:29 10° SSW 04:29:51 73° W 04:36:03 10° N
Cosmos 1153 Rocket 4.5 04:26:04 10° S 04:32:22 77° E 04:38:32 10° NNE
Cosmos 1340 Rocket 3.1 04:29:13 10° N 04:33:08 51° E 04:37:10 10° SSE
BREEZE M DEB (TANK) 3.9 04:37:21 10° N 04:38:33 14° NE 04:39:52 10° ENE
Meteor 1-31 Rocket 3.4 04:35:05 10° SSE 04:38:52 38° E 04:42:35 10° NNE
Cosmos 2151 3.7 04:37:06 10° NNE 04:41:02 34° E 04:45:01 10° SSE
Cosmos 1607 4.1 04:36:54 10° NW 04:43:12 86° SW 04:49:39 10° SE
PSLV R/B 4.2 04:39:18 10° S 04:43:29 56° WSW 04:47:38 10° NNW
USA 308 2.8 04:40:42 10° WSW 04:44:58 81° SSE 04:49:12 10° ENE
SL-16 R/B 3.4 04:42:17 10° S 04:46:45 23° SE 04:51:13 10° E
CZ-2C R/B 4.1 04:43:31 10° S 04:47:27 43° WSW 04:51:18 10° NW
Cosmos 1302 Rocket 4.0 04:45:35 10° NNW 04:50:50 89° ENE 04:56:12 10° SSE
COSMOS 2406 3.3 04:47:41 10° N 04:53:16 60° ENE 04:58:54 10° SSE
COSMO-SKYMED 1 3.0 04:49:25 10° N 04:53:47 68° WNW 04:58:13 10° SSW
Landsat 5 4.0 04:51:52 10° NE 04:56:01 40° ESE 05:00:07 10° S
Cosmos 2173 Rocket 4.0 04:52:34 10° S 04:59:02 74° E 05:05:19 10° NNE
Cosmos 1782 2.8 04:56:10 10° S 05:00:11 59° ESE 05:04:06 10° NNE
Cosmos 1833 Rocket 2.8 04:55:24 10° NNW 05:01:05 79° WSW 05:06:50 10° SSE
Cosmos 2016 Rocket 4.1 04:55:36 10° S 05:01:44 52° ESE 05:07:52 10° NNE
SJ-12 4.5 04:58:44 10° S 05:02:55 63° WSW 05:07:01 10° NNW
Cosmos 1354 Rocket 4.5 04:58:24 10° S 05:03:23 39° ESE 05:08:17 10° NE
SeaSat 1 3.7 05:00:53 10° SSE 05:05:27 37° SW 05:10:00 10° WNW
USA 305 3.2 05:02:03 10° WSW 05:06:15 68° NW 05:10:26 10° NE
Cosmos 1486 Rocket 4.0 05:01:35 10° SSW 05:07:00 77° ESE 05:12:22 10° NNE
Cosmos 1992 Rocket 4.1 05:02:00 10° N 05:07:08 58° ENE 05:12:19 10° SSE
Cosmos 2233 Rocket 4.5 05:02:00 10° S 05:07:48 36° ESE 05:13:35 10° NE
Cosmos 2360 Rocket 3.6 05:04:21 10° S 05:08:09 18° SE 05:09:28 17° SE
Cosmos 1933 3.4 05:04:43 10° S 05:08:51 85° W 05:12:56 10° N
SMAP 4.0 05:06:12 13° SE 05:09:41 28° E 05:13:44 10° NNE
Cosmos 2278 3.8 05:04:03 10° SSW 05:09:42 55° ESE 05:15:16 10° NE
Cosmos 1939 Rocket 3.0 05:06:20 10° SSE 05:10:11 49° E 05:13:59 10° N
Cosmos 1727 Rocket 4.3 05:03:58 10° NNW 05:10:12 72° W 05:16:30 10° S
Lacrosse 5 rocket 2.5 05:07:28 10° SW 05:10:57 26° SSE 05:12:33 20° SE
DMSP B5D1-3 4.5 05:09:37 10° NNE 05:14:47 73° ESE 05:20:02 10° S
Cosmos 1864 Rocket 4.5 05:09:27 10° S 05:15:38 62° ESE 05:21:44 10° NNE
Cosmos 1151 Rocket 3.7 05:12:42 10° S 05:16:43 31° ESE 05:20:40 10° NE
Meteor PRIRODA 4.3 05:16:58 22° SE 05:18:46 35° E 05:22:12 10° NNE
Cosmos 1076 Rocket 3.8 05:15:05 10° NNW 05:19:28 73° W 05:23:53 10° S
Cosmos 1802 Rocket 4.0 05:14:47 10° S 05:21:18 83° E 05:27:48 10° N
BREEZE-M DEB (TANK) 4.3 05:13:28 10° WSW 05:21:32 38° NW 05:24:45 10° NNE
SL-08 R/B 4.5 05:15:20 10° S 05:21:35 62° ESE 05:27:40 10° NNE
Cosmos 1459 Rocket 4.1 05:16:13 10° S 05:22:27 80° W 05:28:44 10° N
Meteor 2-3 Rocket 3.9 05:18:19 10° NNW 05:23:57 79° WSW 05:29:44 10° S
USA 281 3.8 05:21:17 16° SE 05:25:57 36° ENE 05:31:56 10° N
Orbus 7S? 3.3 05:23:59 10° SW 05:27:59 40° SSE 05:28:30 36° SE
ATLAS 2AS CENTAUR R/B 4.3 05:21:30 10° SW 05:28:01 40° WNW 05:34:52 10° N
CZ-2D R/B 3.9 05:30:12 33° E 05:30:30 33° E 05:34:02 10° NNE
ARGOS 4.0 05:30:55 26° E 05:31:34 27° E 05:36:04 10° NNE
Cosmos 1812 2.8 05:28:16 10° S 05:32:11 82° W 05:36:03 10° N
CZ-4B R/B 3.0 05:34:48 36° ESE 05:35:48 45° E 05:39:33 10° N
CZ-2C R/B 4.2 05:31:44 10° S 05:36:15 39° WSW 05:40:49 10° NW
Cosmos 1503 Rocket 3.9 05:31:39 10° SSW 05:36:56 82° ESE 05:42:09 10° NNE
SJ 16-02 1.6 05:32:44 10° S 05:37:04 46° ESE 05:39:38 22° NE
Cosmos 1980 Rocket 2.8 05:34:57 10° SW 05:40:32 60° WNW 05:46:02 10° N
Meteor 2-6 Rocket 4.1 05:35:08 10° S 05:40:48 70° ESE 05:46:16 10° NNE
CZ-4C R/B 2.7 05:41:39 10° NNE 05:44:54 72° ESE 05:48:17 10° S
USA 306 4.3 05:44:19 10° WSW 05:48:12 37° NW 05:52:05 10° NNE
Lacrosse 4 Rocket 4.2 05:49:06 10° SW 05:49:43 10° SSW 05:50:21 10° SSW
H-2A R/B 3.8 05:52:26 19° SSE 05:52:26 19° SSE 05:54:02 10° S
Cosmos 2322 Rocket 2.6 05:44:49 10° SSW 05:50:15 41° SE 05:51:23 37° E
RESURS DK-1 3.5 05:47:25 10° SW 05:51:26 44° WNW 05:55:24 10° N
USA 307 4.2 05:49:34 10° WSW 05:53:31 38° NW 05:56:49 14° NNE
Cosmos 1900 4.3 05:48:41 10° SSW 05:53:32 60° SE 05:54:56 42° ENE
Cosmos 2082 Rocket 2.4 05:49:47 10° NW 05:55:25 70° WSW 05:59:35 19° SSE
H-2A R/B 1.8 05:55:24 18° SSE 05:59:09 76° ENE 06:04:06 10° N
USA 215 3.5 05:53:46 11° NE 06:00:15 71° NW 06:06:53 10° WSW
Cosmos 2333 Rocket 3.6 05:56:31 10° S 05:59:59 22° SSE 05:59:59 22° SSE
Cosmos 2123 Rocket 4.3 05:57:05 10° NNW 06:03:27 71° WSW 06:09:52 10° S
ERBS 2.8 06:00:30 10° WSW 06:03:04 53° W 06:03:04 53° W
Cosmos 2061 Rocket 4.4 05:58:10 10° SSW 06:04:34 68° W 06:10:49 10° N
Cosmos 1725 Rocket 4.4 05:58:41 10° SSW 06:04:55 64° W 06:11:08 10° N
Cosmos 1862 3.4 06:01:32 10° NNW 06:05:32 74° W 06:07:13 34° S
Cosmos 1766 Rocket 3.8 06:01:16 10° N 06:04:50 51° NE 06:04:50 51° NE
IRIDIUM 104 4.3 06:00:55 10° NNE 06:06:06 61° E 06:09:31 22° SSE
Lacrosse 5 2.0 06:01:10 10° SW 06:06:15 55° SSE 06:06:46 52° SE
Okean 3 Rocket 4.4 06:02:30 10° N 06:05:27 36° NE 06:05:27 36° NE
CZ-2C R/B 3.7 06:07:10 10° NNW 06:08:09 11° N 06:08:37 11° N
ADEOS 3.9 06:04:03 10° S 06:09:19 65° WSW 06:14:31 10° NNW
CORIOLIS 4.1 06:05:10 18° SSE 06:09:24 79° ENE 06:14:54 10° NNW
Cosmos 2219 Rocket 3.8 06:06:13 10° S 06:08:49 19° SSE 06:08:49 19° SSE
IRIDIUM 114 4.2 06:09:58 10° N 06:15:13 72° E 06:18:41 22° S
Cosmos 2084 3.6 06:11:22 10° NW 06:16:13 87° NE 06:16:41 73° SE
IRIDIUM 103 4.2 06:19:05 10° N 06:24:21 86° E 06:27:48 23° S
Cosmos 1867 3.9 06:19:19 10° SSW 06:23:54 48° SSE 06:23:54 48° SSE
AQUARIUS 4.5 06:25:01 41° S 06:26:28 67° WSW 06:30:58 10° NNW
NOAA 6 4.1 06:29:17 40° S 06:31:12 78° WSW 06:36:21 10° NNW
SL-16 R/B 2.2 06:25:50 10° SSW 06:31:36 83° WNW 06:33:22 46° NNE
Cosmos 2237 4.1 06:32:25 10° SSW 06:37:59 79° SSE 06:37:59 79° SSE
Cosmos 1777 Rocket 4.5 06:34:13 10° SSW 06:39:24 58° WNW 06:42:25 24° N
SMAP 4.4 06:44:40 22° SSW 06:47:07 39° WSW 06:51:28 10° NW
Lacrosse 5 rocket 3.4 06:46:36 10° SW 06:48:05 21° SW 06:48:05 21° SW
Cosmos 2360 Rocket 3.0 06:47:30 10° SSW 06:51:15 42° SSW 06:51:15 42° SSW
Meteor 1-27 Rocket 4.2 06:58:54 10° SSW 07:04:24 58° W 07:04:58 55° WNW
USA 281 3.7 07:08:10 36° S 07:10:40 55° SW 07:17:06 10° NW
ARGOS 3.9 07:12:25 50° W 07:12:25 50° W 07:17:18 10° NW
SJ 16-02 3.8 07:11:58 10° SW 07:15:18 21° W 07:16:45 18° NW
Cosmos 2322 Rocket 3.6 07:29:00 10° SW 07:33:15 36° W 07:33:15 36° W
H-2A R/B 4.4 07:36:01 14° SSW 07:37:59 18° WSW 07:41:13 10° W
Cosmos 2082 Rocket 4.4 07:36:55 10° WSW 07:40:36 17° SW 07:41:27 17° SSW
Cosmos 2333 Rocket 4.3 07:40:18 10° SSW 07:42:00 20° SSW 07:42:00 20° SSW
Lacrosse 5 4.3 07:44:19 10° WSW 07:45:59 20° WSW 07:45:59 20° WSW
